West Brevoort - southern half: Past 24 Hour Conditions

 

Baker Lake Airport

02:00 AM CDT 01 August 2014
This table is a summary of hourly weather conditions for the past 24 hours.
Date / Time
(CDT)
Wind(knots) Conditions Visibility(km) Pressure(kPa) Air tempC) Relative humidity(%) Dew pointC) Humidex
01 August 2014
2:00 NW 21 gust 27 Haze 24 101.1 14 85 12 *
1:00 NW 13 Haze 24 101.1 15 85 13 *
0:00 NNW 12 Haze 24 101.1 16 84 14 *
31 July 2014
23:00 S 6 Haze 24 101.1 20 71 15 *
22:00 SSE 9 Haze 24 101.1 20 74 15 *
21:00 SSE 11 Haze 24 101.1 21 69 16 26
20:00 SSE 11 Haze 16 101.1 22 69 16 26
19:00 SSE 12 Haze 24 101.1 25 57 16 30
18:00 SSE 9 Haze 24 101.2 25 56 16 30
17:00 SSE 11 Haze 24 101.2 25 57 16 30
16:00 SSE 11 Haze 24 101.2 26 55 16 31
15:00 SE 8 Haze 24 101.3 25 59 16 29
14:00 SE 8 Haze 24 101.3 23 66 16 28
13:00 ESE 6 Haze 24 101.4 20 76 16 *
12:00 ESE 7 Haze 32 101.4 18 79 15 *
11:00 E 8 Haze 32 101.5 17 84 14 *
10:00 ESE 5 Haze 32 101.5 15 90 14 *
9:00 ESE 6 Haze 32 101.5 15 92 13 *
8:00 ESE 4 Haze 32 101.6 14 97 13 *
7:00 ENE 2 Haze 6 101.6 13 98 13 *
6:00 calm Haze 24 101.6 13 96 12 *
5:00 E 3 Haze 24 101.7 14 88 12 *
4:00 N 4 Haze 24 101.7 13 90 11 *
3:00 NNW 2 Haze 24 101.7 13 91 12 *
2:00 NE 2 Haze 24 101.7 14 84 11 *
 
Map of Arctic - Eastern Arctic marine weather areas Baker Lake Airport Chesterfield Inlet Airport Coral Harbour Airport Gjoa Haven Airport Kugaaruk Airport Rankin Inlet Airport Shepherd Bay Airport Whale Cove Airport Arctic Bay Brevoort Island Qikiqtarjuaq Airport Cape Dorset Airport Cape Dyer Cape Hooper Clyde Airport Grise Fiord Airport Hall Beach Airport Igloolik Airport Iqaluit Airport Longstaff Bluff Pangnirtung Airport Pond Inlet Airport Repulse Bay Airport Resolute Airport Resolution Island Rowley Island Airport Taloyoak Airport Wager Bay Akulivik Airport Ivujivik Airport Puvirnituq Airport Kangiqsujuaq Airport Kangirsuk Airport Quaqtaq Airport Tasiujaq Airport Cape Kakkiviak Cape Kiglapait Nain Airport Saglek Cape Mercy Kimmirut Airport Aupaluk Airport Salluit Airport Kangiqsualujjuaq Airport Fort Ross
Legend: buoyBuoy land stationLand Station